Regional Weather Roundup
Issued by NWS Green Bay, WI

Home | Current Version | Previous Version | Text Only | Print | Product List | Glossary On
Versions: 1 2 3 4 5 6 7 8 9 10 11 12 13 14 15 16 17 18 19 20 21 22 23 24 25 26 27 28 29 30 31 32 33 34 35 36 37 38 39 40 41 42 43 44 45 46 47 48 49 50
000
ASUS43 KGRB 240101
RWRGRB

NORTH-CENTRAL AND NORTHEAST WISCONSIN REGIONAL WEATHER ROUNDUP
NATIONAL WEATHER SERVICE GREEN BAY WI
800 PM CDT SUN JUL 23 2017

WIZ005-009-010>012-018-019-240200-
NORTH CENTRAL WISCONSIN

CITY           SKY/WX    TMP DP  RH WIND       PRES   REMARKS
IRONWOOD       CLOUDY    60  57  89 CALM      30.02R
MANITOWISH WTR CLOUDY    59  59 100 NE3       30.00S
ARBOR VITAE    NOT AVBL
EAGLE RIVER    NOT AVBL
LAND O LAKES   PTCLDY    60  55  82 NE6       30.02S
RHINELANDER    CLOUDY    62  56  80 NE7       29.99S
PHILLIPS       CLOUDY    62  58  87 N6        29.99R
ANTIGO         CLOUDY    63  55  74 NE12      29.96R
TOMAHAWK       NOT AVBL
MERRILL        NOT AVBL
$$

WIZ013-073-240200-
NORTHEAST WISCONSIN

CITY           SKY/WX    TMP DP  RH WIND       PRES   REMARKS
IRON MOUNTAIN  MOCLDY    62  54  74 N9        29.95R
MARINETTE      CLOUDY    63  56  78 N10G21    29.92R
$$

WIZ017-030-035>037-045-240200-
CENTRAL WISCONSIN

CITY           SKY/WX    TMP DP  RH WIND       PRES   REMARKS
MEDFORD        NOT AVBL
WAUSAU         MOCLDY    67  57  70 NE8       29.93R
MOSINEE        PTCLDY    68  57  68 N10G18    29.94R
MARSHFIELD     PTCLDY    67  56  67 N10       29.94R
WISC RAPIDS    PTCLDY    70  59  68 N15       29.93R
STEVENS POINT  NOT AVBL
WAUPACA        NOT AVBL
SHAWANO        CLOUDY    69  57  65 NE16      29.92R
CLINTONVILLE   CLEAR     68  54  60 NE14G23   29.91R
WAUTOMA        MOCLDY    75  62  64 N7        29.88R
$$

WIZ038-039-048-051-240200-
FOX VALLEY

CITY           SKY/WX    TMP DP  RH WIND       PRES   REMARKS
NWS GREEN BAY  MOCLDY    67  59  75 N18       29.90R
APPLETON       MOCLDY    70  55  60 NE17G23   29.88
OSHKOSH        CLOUDY    72  64  76 NE13      29.86R
FOND DU LAC    MOCLDY    73  62  68 NE16G26   29.86R
$$

WIZ022-050-052-240200-
EAST CENTRAL WISCONSIN

CITY           SKY/WX    TMP DP  RH WIND       PRES   REMARKS
EPHRAIM        CLOUDY    63  58  85 N16G22    29.89R
WASHINGTON ISL CLOUDY    62  58  86 N14G21    29.89R
STURGEON BAY     N/A     64  59  83 N15G23    29.90R
MANITOWOC      NOT AVBL
SHEBOYGAN      CLOUDY    68  65  90 NE12G22   29.86R
$$

LMZ563-521-522-541>543-240200-
LAKESHORE

STATION/POSITION TIME  TEMP    WIND        PRES    VSBY  WAVE
                       AIR SEA DIR/SP/G                  HT/PER
                 (UTC) (F)     (DEG/KT/KT) (MB)    (MI)  (FT/S)
SHEBOYGAN LKSHOR 0000   68      40/ 19/ 20 1010.2R
KEWAUNEE LKSHORE 0030   67     360/  9/ 16 1011.0R
NORTHPORT PIER   0040   65     360/ 16/ 21 1012.2R
N MID LAKE BUOY  2350   63 67   30/ 19/ 23 1011.0          3/ 4
S GREEN BAY BUOY 0030   67 72  350/ 21/ 27 1012.1R
SISTER BAY LKSHO 0017   65      10/ 14/ 19   N/A
CHAMBERS ISLAND  0040   65     340/ 21/ 27 1011.9R
MENOMINEE LKSHOR 0030   65     350/ 19/ 20 1012.1R
$$




USA.gov is the U.S. government's official web portal to all federal, state and local government web resources and services.